Location: Peterborough
(44.3091°N, 78.3197°W)
Time: 17:45:29
(UTC-04:00)

Transit 2A - Pass Details

Date: 29 March 2023
Orbit: 591 x 964 km, 66.7° (Epoch: 04 June)

Event Time Altitude Azimuth Distance (km) Brightness Sun altitude
Rises 03:28:15 0° 147° (SSE) 3,199 - -34.2°
Exits shadow 03:32:03 - 118° (ESE) 2,461 8.7 -33.7°
Reaches altitude 10° 03:32:58 10° 108° (ESE) 2,396 8.8 -33.6°
Maximum altitude 03:33:55 10° 98° (E) 2,388 8.9 -33.5°
Drops below altitude 10° 03:34:53 10° 88° (E) 2,443 9.0 -33.4°
Sets 03:39:59 0° 51° (NE) 3,496 10.5 -32.8°
